Location: �chenoz-la-M�line
(47.6009°N, 6.1354°E)
Time: 11:31:53
(UTC+00:00)

USA 307 - Pass Details

Date: 27 January 2021
Orbit: 562 x 583 km, 54.0° (Epoch: 28 February)

Event Time Altitude Azimuth Distance (km) Brightness Sun altitude
Exits shadow 06:20:37 - 271° (W) 1,907 5.0 -8.2°
Reaches altitude 10° 06:20:45 10° 271° (W) 1,855 4.9 -8.2°
Maximum altitude 06:24:47 43° 344° (NNW) 801 3.4 -7.5°
Drops below altitude 10° 06:28:49 10° 57° (ENE) 1,860 6.1 -6.9°
Sets 06:31:10 0° 64° (ENE) 2,759 7.1 -6.5°
